Weather in Sokrutovka

Russia / Astrakhan Oblast     47°54′17″N   46°32′23″E
temp.,
°C
wind,
m/s
gust,
m/s
humid.,
%
clouds,
%
prec.,
mm/h
press.,
hPa
HPBL,
m
1 august, sun
sun101:00+27se22232 0.0 101111
04:00+25sse33240 0.0 101127
07:00+26sse23380 0.0 101282
10:00+32ese22240 0.0 1012817
13:00+36ese43190 0.0 10112582
16:00+37se43190 0.0 10103108
19:00+35se53220 0.0 10101893
22:00+30ese22325 0.0 101013
2 august, mon
mon201:00+28s454127 0.3 101155
04:00+29ssw224323 0.3 101126
07:00+29ssw11445 0.1 101160
10:00+35s44253 0.1 10121022
13:00+38s661315 0.0 10113035
16:00+39s66125 0.0 10103540
19:00+38s25134 0.0 10103244
22:00+31sse33206 0.0 101031
3 august, tue
tue301:00+29s342181 0.0 101051
04:00+26ssw22255 0.0 101111
07:00+29s34235 0.0 101195
10:00+36sse33145 0.0 1011882
13:00+40ssw6695 0.0 10103864
16:00+40sw5685 0.0 10094126
19:00+39ssw45936 0.0 1009590
22:00+31s33150 0.0 100912
4 august, wed
wed401:00+30ssw46160 0.0 100972
04:00+27ssw33205 0.0 100928
07:00+28ssw362216 0.0 1010144
10:00+36ssw3414100 0.0 1010706
13:00+39w5615100 0.0 10102805
16:00+38wnw5517100 0.0 10092837
19:00+34sse1124100 0.0 1010243
22:00+30nnw7133510 0.0 1011447
5 august, thu
thu501:00+26nnw484388 0.1 1012165
04:00+25nnw4648100 0.4 1013139
07:00+25n4752100 0.0 1014275
10:00+26nne2349100 0.6 1015745
13:00+32n5533100 0.0 10142350
16:00+33n55230 0.0 10132978
19:00+32n66202 0.0 10132612
22:00+26n5102899 0.0 1014216